Time,TemperatureF,DewpointF,PressureIn,WindDirection,WindDirectionDegrees,WindSpeedMPH,WindSpeedGustMPH,Humidity,HourlyPrecipIn,Conditions,Clouds,dailyrainin,SoftwareType,DateUTC
2013-08-04 00:03:00,63.0,60.0,30.10,NE,44,0.0,0.0,90,0.00,,,0.65,,2013-08-04 04:03:00,
2013-08-04 00:12:00,63.0,60.0,30.10,NE,44,0.0,0.0,90,0.00,,,0.65,,2013-08-04 04:12:00,
2013-08-04 00:22:00,63.0,60.0,30.10,NE,44,0.0,0.0,90,0.00,,,0.65,,2013-08-04 04:22:00,
2013-08-04 00:32:00,62.0,59.0,30.11,NE,44,0.0,0.0,91,0.00,,,0.65,,2013-08-04 04:32:00,
2013-08-04 00:42:00,62.0,59.0,30.11,NE,44,0.0,0.0,91,0.00,,,0.65,,2013-08-04 04:42:00,
2013-08-04 00:52:00,60.0,58.0,30.11,NE,44,0.0,0.0,94,0.00,,,0.53,,2013-08-04 04:52:00,
2013-08-04 01:02:00,60.0,58.0,30.11,NE,44,0.0,0.0,94,0.00,,,0.53,,2013-08-04 05:02:00,
2013-08-04 01:12:00,60.0,58.0,30.11,NE,44,0.0,0.0,94,0.00,,,0.53,,2013-08-04 05:12:00,
2013-08-04 01:22:00,60.0,59.0,30.11,NE,44,0.0,0.0,96,0.00,,,0.50,,2013-08-04 05:22:00,
2013-08-04 01:32:00,60.0,59.0,30.11,NE,44,0.0,0.0,96,0.00,,,0.48,,2013-08-04 05:32:00,
2013-08-04 01:42:00,59.0,58.0,30.11,NE,44,0.0,0.0,97,0.00,,,0.38,,2013-08-04 05:42:00,
2013-08-04 01:52:00,59.0,58.0,30.11,NE,44,0.0,0.0,97,0.00,,,0.38,,2013-08-04 05:52:00,
2013-08-04 02:02:00,59.0,58.0,30.12,NE,44,0.0,0.0,98,0.00,,,0.18,,2013-08-04 06:02:00,
2013-08-04 02:12:00,59.0,58.0,30.12,NE,44,0.0,0.0,98,0.00,,,0.18,,2013-08-04 06:12:00,
2013-08-04 02:22:00,59.0,59.0,30.12,NE,44,0.0,0.0,99,0.00,,,0.12,,2013-08-04 06:22:00,
2013-08-04 02:32:00,58.0,58.0,30.12,NE,44,0.0,0.0,99,0.00,,,0.11,,2013-08-04 06:32:00,
2013-08-04 02:43:00,58.0,58.0,30.12,NE,44,0.0,0.0,99,0.00,,,0.11,,2013-08-04 06:43:00,
2013-08-04 02:52:00,58.0,58.0,30.12,NE,44,0.0,0.0,99,0.00,,,0.10,,2013-08-04 06:52:00,
2013-08-04 03:02:00,58.0,58.0,30.12,NE,44,0.0,0.0,99,0.00,,,0.08,,2013-08-04 07:02:00,
2013-08-04 03:12:00,58.0,58.0,30.12,NE,44,0.0,0.0,99,0.00,,,0.06,,2013-08-04 07:12:00,
2013-08-04 03:22:00,58.0,58.0,30.12,NE,44,0.0,0.0,99,0.00,,,0.00,,2013-08-04 07:22:00,
2013-08-04 03:33:00,58.0,58.0,30.13,NE,44,0.0,0.0,99,0.00,,,0.00,,2013-08-04 07:33:00,
2013-08-04 03:42:00,58.0,58.0,30.13,NE,44,0.0,0.0,99,0.00,,,0.00,,2013-08-04 07:42:00,
2013-08-04 03:53:00,57.0,57.0,30.13,NE,44,0.0,0.0,99,0.00,,,0.00,,2013-08-04 07:53:00,
2013-08-04 04:02:00,57.0,57.0,30.13,NE,44,0.0,0.0,99,0.00,,,0.00,,2013-08-04 08:02:00,
2013-08-04 04:12:00,57.0,57.0,30.14,NE,44,0.0,0.0,99,0.00,,,0.00,,2013-08-04 08:12:00,
2013-08-04 04:23:00,57.0,57.0,30.14,NE,44,0.0,0.0,99,0.00,,,0.00,,2013-08-04 08:23:00,
2013-08-04 04:32:00,57.0,57.0,30.14,NE,44,0.0,0.0,99,0.00,,,0.00,,2013-08-04 08:32:00,
2013-08-04 04:43:00,57.0,57.0,30.14,NE,44,0.0,0.0,99,0.00,,,0.00,,2013-08-04 08:43:00,
2013-08-04 04:53:00,57.0,57.0,30.14,NE,44,0.0,0.0,99,0.00,,,0.00,,2013-08-04 08:53:00,
2013-08-04 05:02:00,57.0,57.0,30.14,NE,44,0.0,0.0,99,0.00,,,0.00,,2013-08-04 09:02:00,
2013-08-04 05:12:00,57.0,57.0,30.14,NE,44,0.0,0.0,99,0.00,,,0.00,,2013-08-04 09:12:00,
2013-08-04 05:22:00,56.0,56.0,30.13,NE,44,0.0,0.0,99,0.00,,,0.00,,2013-08-04 09:22:00,
2013-08-04 05:32:00,56.0,56.0,30.13,NE,44,0.0,0.0,99,0.00,,,0.00,,2013-08-04 09:32:00,
2013-08-04 05:43:00,56.0,56.0,30.13,NE,44,0.0,0.0,99,0.00,,,0.00,,2013-08-04 09:43:00,
2013-08-04 05:52:00,56.0,56.0,30.12,NE,44,0.0,0.0,99,0.00,,,0.00,,2013-08-04 09:52:00,
2013-08-04 06:02:00,56.0,56.0,30.13,NE,44,0.0,0.0,99,0.00,,,0.00,,2013-08-04 10:02:00,
2013-08-04 06:12:00,55.0,55.0,30.13,NE,44,0.0,0.0,99,0.00,,,0.00,,2013-08-04 10:12:00,
2013-08-04 06:22:00,55.0,55.0,30.13,NE,44,0.0,0.0,99,0.00,,,0.00,,2013-08-04 10:22:00,
2013-08-04 06:32:00,55.0,55.0,30.14,NE,44,0.0,0.0,99,0.00,,,0.00,,2013-08-04 10:32:00,
2013-08-04 06:43:00,55.0,55.0,30.14,NE,44,0.0,0.0,99,0.00,,,0.00,,2013-08-04 10:43:00,
2013-08-04 06:53:00,55.0,55.0,30.14,NE,44,0.0,0.0,99,0.00,,,0.00,,2013-08-04 10:53:00,
2013-08-04 07:02:00,55.0,55.0,30.15,NE,44,0.0,0.0,99,0.00,,,0.00,,2013-08-04 11:02:00,
2013-08-04 07:12:00,55.0,55.0,30.15,NE,44,0.0,0.0,99,0.00,,,0.00,,2013-08-04 11:12:00,
2013-08-04 07:22:00,55.0,55.0,30.16,NE,44,0.0,0.0,99,0.00,,,0.00,,2013-08-04 11:22:00,
2013-08-04 07:32:00,55.0,55.0,30.16,NE,44,0.0,0.0,99,0.00,,,0.00,,2013-08-04 11:32:00,
2013-08-04 07:42:00,55.0,55.0,30.16,NE,44,0.0,0.0,99,0.00,,,0.00,,2013-08-04 11:42:00,
2013-08-04 07:53:00,55.0,55.0,30.16,NE,44,0.0,0.0,99,0.00,,,0.00,,2013-08-04 11:53:00,
2013-08-04 08:02:00,55.0,55.0,30.16,NE,44,0.0,0.0,99,0.00,,,0.00,,2013-08-04 12:02:00,
2013-08-04 08:12:00,56.0,56.0,30.17,NE,44,0.0,0.0,99,0.00,,,0.00,,2013-08-04 12:12:00,
2013-08-04 08:22:00,57.0,57.0,30.17,NE,44,0.0,0.0,99,0.00,,,0.00,,2013-08-04 12:22:00,
2013-08-04 08:33:00,58.0,58.0,30.17,NE,44,0.0,0.0,99,0.00,,,0.00,,2013-08-04 12:33:00,
2013-08-04 08:43:00,58.0,58.0,30.17,NE,44,0.0,0.0,99,0.00,,,0.00,,2013-08-04 12:43:00,
2013-08-04 10:22:00,70.0,63.0,30.19,East,97,1.0,0.0,79,0.00,,,0.00,,2013-08-04 14:22:00,
2013-08-04 10:32:00,71.0,63.0,30.19,ESE,112,5.0,6.0,76,0.00,,,0.00,,2013-08-04 14:32:00,
2013-08-04 10:43:00,72.0,63.0,30.19,ENE,59,3.0,6.0,74,0.00,,,0.00,,2013-08-04 14:43:00,
2013-08-04 10:52:00,72.0,63.0,30.19,ESE,107,8.0,9.0,73,0.00,,,0.00,,2013-08-04 14:52:00,
2013-08-04 11:02:00,72.0,61.0,30.19,ESE,103,7.0,8.0,69,0.00,,,0.00,,2013-08-04 15:02:00,
2013-08-04 11:12:00,72.0,62.0,30.19,SE,140,5.0,7.0,70,0.00,,,0.00,,2013-08-04 15:12:00,
2013-08-04 11:22:00,73.0,63.0,30.19,NE,49,3.0,9.0,71,0.00,,,0.00,,2013-08-04 15:22:00,
2013-08-04 11:32:00,73.0,61.0,30.19,SE,133,0.0,0.0,67,0.00,,,0.00,,2013-08-04 15:32:00,
2013-08-04 11:43:00,74.0,62.0,30.19,ENE,67,2.0,7.0,66,0.00,,,0.00,,2013-08-04 15:43:00,
2013-08-04 11:53:00,74.0,61.0,30.19,ESE,102,6.0,8.0,63,0.00,,,0.00,,2013-08-04 15:53:00,
2013-08-04 12:02:00,75.0,62.0,30.19,ESE,103,0.0,0.0,65,0.00,,,0.00,,2013-08-04 16:02:00,
2013-08-04 12:12:00,75.0,61.0,30.19,NNE,25,1.0,0.0,62,0.00,,,0.00,,2013-08-04 16:12:00,
2013-08-04 12:22:00,75.0,61.0,30.19,NNE,30,1.0,0.0,61,0.00,,,0.00,,2013-08-04 16:22:00,
2013-08-04 12:33:00,75.0,61.0,30.18,ENE,69,7.0,10.0,62,0.00,,,0.00,,2013-08-04 16:33:00,
2013-08-04 12:42:00,75.0,60.0,30.18,ENE,62,0.0,0.0,60,0.00,,,0.00,,2013-08-04 16:42:00,
2013-08-04 12:53:00,75.0,62.0,30.18,NNW,337,2.0,5.0,63,0.00,,,0.00,,2013-08-04 16:53:00,
2013-08-04 13:02:00,76.0,62.0,30.18,East,85,0.0,0.0,61,0.00,,,0.00,,2013-08-04 17:02:00,
2013-08-04 13:12:00,76.0,60.0,30.18,East,79,1.0,0.0,58,0.00,,,0.00,,2013-08-04 17:12:00,
2013-08-04 13:22:00,75.0,59.0,30.18,ESE,115,3.0,7.0,58,0.00,,,0.00,,2013-08-04 17:22:00,
2013-08-04 13:32:00,75.0,59.0,30.18,ENE,62,0.0,0.0,57,0.00,,,0.00,,2013-08-04 17:32:00,
2013-08-04 13:43:00,75.0,59.0,30.18,ENE,62,0.0,0.0,57,0.00,,,0.00,,2013-08-04 17:43:00,
2013-08-04 13:53:00,75.0,59.0,30.18,NNE,28,5.0,8.0,58,0.00,,,0.00,,2013-08-04 17:53:00,
2013-08-04 14:02:00,75.0,60.0,30.18,NNE,27,0.0,0.0,60,0.00,,,0.00,,2013-08-04 18:02:00,
2013-08-04 14:12:00,76.0,62.0,30.17,NNE,26,3.0,6.0,61,0.00,,,0.00,,2013-08-04 18:12:00,
2013-08-04 14:23:00,76.0,59.0,30.17,North,4,2.0,6.0,56,0.00,,,0.00,,2013-08-04 18:23:00,
2013-08-04 14:33:00,76.0,59.0,30.17,NE,48,2.0,8.0,56,0.00,,,0.00,,2013-08-04 18:33:00,
2013-08-04 14:43:00,75.0,59.0,30.17,NNE,27,0.0,0.0,57,0.00,,,0.00,,2013-08-04 18:43:00,
2013-08-04 14:52:00,75.0,59.0,30.17,North,9,1.0,6.0,57,0.00,,,0.00,,2013-08-04 18:52:00,
2013-08-04 15:02:00,75.0,57.0,30.17,North,354,3.0,7.0,53,0.00,,,0.00,,2013-08-04 19:02:00,
2013-08-04 15:12:00,75.0,58.0,30.16,NW,316,0.0,0.0,55,0.00,,,0.00,,2013-08-04 19:12:00,
2013-08-04 15:22:00,76.0,60.0,30.16,North,3,0.0,0.0,57,0.00,,,0.00,,2013-08-04 19:22:00,
2013-08-04 15:33:00,76.0,59.0,30.16,NE,56,0.0,0.0,55,0.00,,,0.00,,2013-08-04 19:33:00,
2013-08-04 15:44:00,76.0,59.0,30.15,ENE,63,5.0,7.0,55,0.00,,,0.00,,2013-08-04 19:44:00,
2013-08-04 15:53:00,76.0,57.0,30.15,NNE,18,5.0,6.0,52,0.00,,,0.00,,2013-08-04 19:53:00,
2013-08-04 16:02:00,76.0,58.0,30.15,NNE,23,1.0,5.0,53,0.00,,,0.00,,2013-08-04 20:02:00,
2013-08-04 16:12:00,76.0,57.0,30.14,NNE,29,1.0,8.0,51,0.00,,,0.00,,2013-08-04 20:12:00,
2013-08-04 16:22:00,76.0,58.0,30.14,NNE,17,0.0,0.0,54,0.00,,,0.00,,2013-08-04 20:22:00,
2013-08-04 16:33:00,76.0,59.0,30.14,NNE,16,3.0,7.0,55,0.00,,,0.00,,2013-08-04 20:33:00,
2013-08-04 16:43:00,77.0,58.0,30.14,NNW,333,2.0,6.0,52,0.00,,,0.00,,2013-08-04 20:43:00,
2013-08-04 16:53:00,77.0,57.0,30.14,NW,310,2.0,3.0,50,0.00,,,0.00,,2013-08-04 20:53:00,
2013-08-04 17:02:00,77.0,57.0,30.14,NNE,15,3.0,6.0,50,0.00,,,0.00,,2013-08-04 21:02:00,
2013-08-04 17:12:00,78.0,58.0,30.14,NW,313,6.0,7.0,51,0.00,,,0.00,,2013-08-04 21:12:00,
2013-08-04 17:22:00,78.0,58.0,30.14,NNW,337,3.0,6.0,50,0.00,,,0.00,,2013-08-04 21:22:00,
2013-08-04 17:32:00,78.0,57.0,30.13,ENE,58,3.0,7.0,49,0.00,,,0.00,,2013-08-04 21:32:00,
2013-08-04 17:43:00,78.0,61.0,30.13,NE,42,5.0,10.0,55,0.00,,,0.00,,2013-08-04 21:43:00,
2013-08-04 17:53:00,77.0,60.0,30.13,NNE,12,3.0,7.0,56,0.00,,,0.00,,2013-08-04 21:53:00,
2013-08-04 18:02:00,76.0,61.0,30.13,NE,51,5.0,9.0,59,0.00,,,0.00,,2013-08-04 22:02:00,
2013-08-04 18:12:00,75.0,61.0,30.14,NE,42,0.0,0.0,62,0.00,,,0.00,,2013-08-04 22:12:00,
2013-08-04 18:22:00,75.0,61.0,30.13,NE,51,1.0,6.0,61,0.00,,,0.00,,2013-08-04 22:22:00,
2013-08-04 18:32:00,75.0,61.0,30.14,NE,37,0.0,5.0,61,0.00,,,0.00,,2013-08-04 22:32:00,
2013-08-04 18:43:00,75.0,61.0,30.14,North,6,0.0,3.0,62,0.00,,,0.00,,2013-08-04 22:43:00,
2013-08-04 18:53:00,74.0,60.0,30.13,North,8,0.0,0.0,62,0.00,,,0.00,,2013-08-04 22:53:00,
2013-08-04 19:02:00,74.0,61.0,30.13,NE,48,5.0,5.0,64,0.00,,,0.00,,2013-08-04 23:02:00,
2013-08-04 19:12:00,75.0,61.0,30.12,NNE,23,3.0,9.0,62,0.00,,,0.00,,2013-08-04 23:12:00,
2013-08-04 19:23:00,75.0,61.0,30.13,NE,47,3.0,8.0,62,0.00,,,0.00,,2013-08-04 23:23:00,
2013-08-04 19:32:00,74.0,61.0,30.13,NE,45,5.0,8.0,63,0.00,,,0.00,,2013-08-04 23:32:00,
2013-08-04 19:43:00,74.0,61.0,30.13,ENE,64,1.0,8.0,65,0.00,,,0.00,,2013-08-04 23:43:00,
2013-08-04 19:53:00,74.0,61.0,30.13,East,86,5.0,5.0,65,0.00,,,0.00,,2013-08-04 23:53:00,
2013-08-04 20:02:00,74.0,62.0,30.13,ENE,58,0.0,0.0,66,0.00,,,0.00,,2013-08-05 00:02:00,
2013-08-04 20:12:00,73.0,61.0,30.13,ENE,58,0.0,0.0,67,0.00,,,0.00,,2013-08-05 00:12:00,
2013-08-04 20:22:00,73.0,62.0,30.13,ENE,58,0.0,0.0,68,0.00,,,0.00,,2013-08-05 00:22:00,
2013-08-04 20:33:00,73.0,63.0,30.13,ENE,58,0.0,0.0,70,0.00,,,0.00,,2013-08-05 00:33:00,
2013-08-04 20:42:00,72.0,62.0,30.12,ENE,58,0.0,0.0,72,0.00,,,0.00,,2013-08-05 00:42:00,
2013-08-04 20:52:00,72.0,63.0,30.12,ENE,58,0.0,0.0,74,0.00,,,0.00,,2013-08-05 00:52:00,
2013-08-04 21:02:00,71.0,63.0,30.12,NE,36,0.0,6.0,75,0.00,,,0.00,,2013-08-05 01:02:00,
2013-08-04 21:12:00,71.0,63.0,30.12,NE,49,3.0,5.0,76,0.00,,,0.00,,2013-08-05 01:12:00,
2013-08-04 21:22:00,70.0,62.0,30.12,NE,47,0.0,0.0,76,0.00,,,0.00,,2013-08-05 01:22:00,
2013-08-04 21:33:00,70.0,62.0,30.12,NE,47,0.0,0.0,77,0.00,,,0.00,,2013-08-05 01:33:00,
2013-08-04 21:42:00,70.0,62.0,30.12,NE,47,0.0,0.0,77,0.00,,,0.00,,2013-08-05 01:42:00,
2013-08-04 21:52:00,69.0,62.0,30.12,NE,47,0.0,0.0,79,0.00,,,0.00,,2013-08-05 01:52:00,
2013-08-04 22:02:00,69.0,63.0,30.12,NE,47,0.0,0.0,80,0.00,,,0.00,,2013-08-05 02:02:00,
2013-08-04 22:12:00,68.0,62.0,30.13,NE,47,0.0,0.0,82,0.00,,,0.00,,2013-08-05 02:12:00,
2013-08-04 22:22:00,68.0,63.0,30.13,NE,47,0.0,0.0,83,0.00,,,0.00,,2013-08-05 02:22:00,
2013-08-04 22:33:00,68.0,63.0,30.13,NE,47,0.0,0.0,84,0.00,,,0.00,,2013-08-05 02:33:00,
2013-08-04 22:43:00,67.0,62.0,30.13,NE,47,0.0,0.0,85,0.00,,,0.00,,2013-08-05 02:43:00,
2013-08-04 22:53:00,67.0,63.0,30.14,NE,47,0.0,0.0,86,0.00,,,0.00,,2013-08-05 02:53:00,
2013-08-04 23:02:00,66.0,62.0,30.14,NE,47,0.0,0.0,88,0.00,,,0.00,,2013-08-05 03:02:00,
2013-08-04 23:12:00,66.0,63.0,30.13,NE,47,0.0,0.0,90,0.00,,,0.00,,2013-08-05 03:12:00,
2013-08-04 23:22:00,66.0,63.0,30.14,NE,47,0.0,0.0,91,0.00,,,0.00,,2013-08-05 03:22:00,
2013-08-04 23:32:00,65.0,63.0,30.13,NE,47,0.0,0.0,92,0.00,,,0.00,,2013-08-05 03:32:00,
2013-08-04 23:53:00,65.0,63.0,30.13,NE,47,0.0,0.0,93,0.00,,,0.00,,2013-08-05 03:53:00,